Regional Weather Roundup
Issued by NWS Wakefield, VA

Home | Current Version | Previous Version | Graphics & Text | Print | Product List | Glossary On
Versions: 1 2 3 4 5 6 7 8 9 10 11 12 13 14 15 16 17 18 19 20 21 22 23 24 25 26 27
000
ASUS41 KAKQ 301115
RWRAKQ

REGIONAL WEATHER ROUNDUP
NATIONAL WEATHER SERVICE WAKEFIELD VA
700 AM EDT MON MAY 30 2016

Note: "fair" indicates few or no clouds below 12,000 feet with no
significant weather and/or obstructions to visibility. * = Denotes
station may not report precipitation (e.g., rain,snow,etc.),
thunder or fog.

VAZ042-051-052>054-056-301200-
NORTHERN VIRGINIA

CITY           SKY/WX    TMP DP  RH WIND       PRES   REMARKS
WASH NATIONAL  PTSUNNY   69  65  86 E6        30.02R
DULLES         PTSUNNY   67  63  87 CALM      30.03R
FORT BELVOIR   FAIR      67  66  97 CALM      30.02R
QUANTICO       CLOUDY    70  67  90 NW5       30.02S
FREDERICKSBRG* CLOUDY    68  68 100 CALM      30.01S
STAFFORD*      CLOUDY    65  64  96 CALM      30.06R
WARRENTON      CLOUDY    66  62  86 CALM      30.02R FOG
CULPEPER*      CLOUDY    66  66 100 CALM      30.04R FOG
MANASSAS*      PTSUNNY   66  66 100 CALM      30.02R
LEESBURG*      FAIR      66  66 100 CALM      30.04R
WINCHESTER     CLOUDY    63  61  94 CALM      30.05R
FRONT ROYAL*   PTSUNNY   61  61 100 S3        30.04R
LURAY*         FAIR      61  61 100 CALM      30.06R
$$

VAZ048-049-060>072-079>083-301200-
CENTRAL AND SOUTH CENTRAL VIRGINIA

CITY           SKY/WX    TMP DP  RH WIND       PRES   REMARKS
RICHMOND       FOG       67  67 100 N5        30.02R VSB 1
CHESTERFIELD*  CLOUDY    68  57  68 NW3       30.04R
PETERSBURG*    FOG       69  69 100 NW3       30.03R VSB 1/4
HANOVER        CLOUDY    67  65  93 CALM      30.04R FOG
TAPPAHANNOCK*  FOG       71  71 100 CALM      30.03R VSB 1/4
QUINTON*       CLOUDY    68  68 100 NW3       30.01S FOG
CHARLOTTSVILLE CLOUDY    65  61  87 NW3       30.03S
GORDONSVILLE*  FAIR      63  63 100 CALM      30.02S FOG
ORANGE*        PTSUNNY   64  64 100 CALM      30.05R
LOUISA*        FAIR      68  66  94 CALM      30.02S FOG
BUMPASS*       CLOUDY    65  64  99 CALM      30.02S
FARMVILLE*     CLOUDY    65  65  98 CALM      30.03R
CREWE*         CLOUDY    65  65 100 CALM      30.03R
FORT PICKETT*  NOT AVBL
CHASE CITY*    CLOUDY    65  63  94 N3        30.03R
CLARKSVILLE*   CLOUDY    64  64 100 N5        30.02S VSB<1/4
SOUTH HILL*    CLOUDY    68  68 100 N3        30.08R
LAWRENCEVILLE* CLOUDY    69  69 100 CALM      30.02R VSB 1/2
EMPORIA*       FOG       72  72 100 CALM      30.03R VSB 1/4
$$

VAZ088>098-301200-
SOUTHEAST VIRGINIA

CITY           SKY/WX    TMP DP  RH WIND       PRES   REMARKS
NORFOLK        CLOUDY    73  70  90 S7        30.01R
VIRGINIA BEACH LGT RAIN  76  69  79 S6        30.01R
NORFOLK NAVAL  CLOUDY    74  71  91 S6        30.03R
WEST POINT*    CLOUDY    73  72  97 CALM      30.03R
SALUDA*        CLOUDY    72  72 100 CALM      30.01S
NEWPORT NEWS   LGT RAIN  74  72  93 S6        30.01S
LANGLEY AFB    PTSUNNY   73  73 100 S2        30.01S
FORT EUSTIS    CLOUDY    73 N/A N/A S3        30.00R
WILLIAMSBURG*  FAIR      75  73  94 CALM      30.02S
HR EXEC AP*      N/A     73  70  88 SE3       30.03S
FRANKLIN*      CLOUDY    72  71  97 SE3       30.02R
US460-WAKEFLD  LGT RAIN  73  72  96 CALM      30.01R FOG
$$

VAZ020-022-025-037-045-301200-
WEST CENTRAL AND SOUTHWEST VIRGINIA

CITY           SKY/WX    TMP DP  RH WIND       PRES   REMARKS
STAUNTON*      FAIR      58  58  99 CALM      30.08S FOG
WAYNESBORO*    PTSUNNY   58  57  96 CALM      30.08R
HOT SPRINGS VA FAIR      58  58 100 W7        30.13S
LYNCHBURG      LGT RAIN  62  61  96 CALM      30.07R
DANVILLE       CLOUDY    65  62  90 NE5       30.04R
SOUTH BOSTON*  CLOUDY    64  63  94 N3        30.04R
MARTINSVILLE   LGT RAIN  62  61  97 CALM      30.08S
ROANOKE        CLOUDY    61  59  93 NE5       30.09R
BLACKSBURG     FOG       58  58 100 CALM      30.13S VSB 1/4
DUBLIN*        FOG       59  59 100 CALM      30.12S VSB 1/4
MARION*        FOG       54  53  96 CALM      30.14S VSB<1/4
HILLSVILLE*    FOG       57  57 100 NW3       30.10S VSB 1/4
RICHLANDS*     PTSUNNY   58  41  54 CALM      30.12R HAZE
WISE*          FOG       59  59 100 CALM      30.13R VSB<1/4
ABINGDON*      FAIR      62  60  93 E3        30.09S
$$

MDZ021>025-VAZ099-100-301200-
SOUTHERN MARYLAND AND THE DELMARVA PENINSULA

CITY           SKY/WX    TMP DP  RH WIND       PRES   REMARKS
PATUXENT RIVER CLOUDY    70  68  93 NE5       30.01R FOG
BAY BRIDGE APT CLOUDY    70  66  88 CALM      30.01S
LEONARDTOWN    CLOUDY    70  68  94 CALM      30.03S VSB 1/2
DOVER          CLOUDY    73  73 100 SW6       30.00R
GEORGETOWN     LGT RAIN  73  71  93 S6        30.02R FOG
EASTON         CLOUDY    72  72 100 CALM      30.05R
CAMBRIDGE      CLOUDY    72  72 100 SW3       30.01R
SALISBURY      CLOUDY    72  71  97 S5        30.01S
OCEAN CITY     RAIN      71  70  96 S8        30.02S FOG
WALLOPS ISLAND CLOUDY    71  69  93 S8        30.03R
ACCOMACK*      CLOUDY    72  70  94 CALM      30.02S FOG
$$

NCZ012>017-030>032-301200-
NORTH CENTRAL AND EASTERN NORTH CAROLINA

CITY           SKY/WX    TMP DP  RH WIND       PRES   REMARKS
ROANOKE RAPIDS FOG       70  70 100 CALM      30.01R VSB 1/4
RALEIGH        FOG       67  65  93 CALM      30.01R VSB 1/4
ELIZABETH CITY HVY RAIN  72  70  93 SE6       30.02R FOG
AHOSKIE*       DRIZZLE   71  71  98 SE3       30.01R
EDENTON*       CLOUDY   N/A N/A N/A SE6       30.02R
CURRITUCK*     RAIN      72  72 100 CALM      30.03S
KILL DEVIL HLS CLOUDY    72  71  96 SE3       30.01S
MANTEO         NOT AVBL
CAPE HATTERAS  HVY RAIN  72  71  97 S10       30.03R FOG
TARBORO*       CLOUDY    71  71  98 CALM      30.01R FOG
GOLDSBORO      NOT AVBL
WASHINGTON     CLOUDY    72  71  96 E3        30.00R
GREENVILLE     CLOUDY    72  72 100 CALM      30.02R
NEW BERN       LGT RAIN  72  69  90 SE8       30.01R
WILMINGTON     MOSUNNY   73  71  93 E3        29.96R
$$

VAZ048-301200-
ELSEWHERE

CITY           SKY/WX    TMP DP  RH WIND       PRES   REMARKS
HARRISBURG PA  CLOUDY    66  63  90 NW3       30.02R
BALTIMORE      PTSUNNY   68  64  87 NW3       30.02R
ANNAPOLIS      CLOUDY    69  66  90 CALM      30.01S
ANDREWS AFB    CLOUDY    68  65  91 NE3       30.01S
PHILADELPHIA   CLOUDY    72  69  90 NW5       30.01S
HENDERSON NC   FOG       63  62  99 N3        30.02S VSB 1/4
GREENSBORO     CLOUDY    66  61  84 NE6       30.03R
ROCKY MOUNT    CLOUDY    72  71  97 CALM      30.00R
$$

VAZ100-301200-
MARINE

STATION/POSITION TIME  TEMP    WIND        PRES    WAVE   SWELL
                       AIR SEA DIR/SP/G            HT/PER HT/PER
                 (UTC) (F)     (DEG/KT/KT) (MB)    (FT/S) (FT/S)
BRANDYWINE LGT   1000   68     190/ 12/ 12 1016.0R
CAPE MAY NJ      1000   68 69  160/  8/ 11 1015.7S
LEWES DE         1000   73 62  190/  4/  5 1015.9S
15NM E FENWICK I 1050   67 64              1016.7R   3/ 7
OCEAN-CITY-INLET 1000   65 59  220/  8/  9 1016.7R
WACHAPREAGUE VA  1000   72 75  200/ 10/ 13 1015.9R
THOMAS POINT MD  1100   69 68   10/  3/  4 1017.6R
GOOSES REEF MD   1100   69 69  350/  4/  6 1017.3R   0
COVE POINT MD    1000   67     350/  7/  7 1016.5R
SOLOMONS ISLAND  1000   71 68  330/  4/  5   N/A
BISHOPS HEAD MD  1000   73 75  180/  9/ 10 1015.9R
PINEY POINT MD   1000          240/  5/  5   N/A
POTOMAC MD       1100   71 71  160/  2/  4 1015.2R   1
CAMBRIDGE MD     1000   73 69  220/  3/  4 1015.0R
LEWISETTA VA     1000   73 70   CALM  /  2 1015.5R
RAPPAHANNOCK LGT 1000          150/  9/  9 1016.7R
STINGRAY PT      1100   70 69  190/  4/  6 1016.7R   1
YORK RVR RNG VA  1000   71     150/  6/  7 1015.5R
YORKTOWN VA      1000   73 72  170/  3/  4 1015.7R
JAMESTOWN VA     1100   73 75  160/  2/  4   N/A     0
DOMINION TERM VA 1000   73     140/  2/  3 1016.1R
KIPTOPEKE VA     1000      69  170/ 12/ 14   N/A
CHES BAY BRIDGE  1000   72 62  140/  9/ 11 1015.9R
CAPE HENRY VA    1000   71     160/  8/ 10   N/A
CHESAPEAKE LGHT  1000   69     180/ 17/ 18 1016.8R
WILLOUBY STN VA  1000   74     170/  6/  8 1016.9R
CAPE HENRY BUOY  1012      69                N/A     4/ 7
1ST LANDING BUOY 1100   69 67  140/  4/  6 1016.4R   2/ 4
CAPE CHARLES BUO 1026      68                N/A     3/ 7   2/ 7
OFFSHORE WE BUOY 1021      70                N/A     4/ 6   3/ 8
64NM E OF VA BCH 1050   66 62  150/  6/  6 1017.0R   5/ 7   5/ 7
DUCK PIER NC     1000   71 58  240/  4/  6 1015.9R
44100 DUCK FRF   1024      67                N/A     4/ 7
44056 DUCK FRF   1011      62                N/A     3/ 7
OREGON INLET NC  1000   71 78  110/  3/  5 1016.4S
HATTERAS NC      1000   72 77  130/  5/  6 1015.8R
DIAMOND SHLS NC  1050   78 80  150/ 17/ 23 1016.0R   5/ 8   3/ 8
CAPE LOOKOUT NC1F1C2F2C3F3C4F4C5F5C6F6C7F7C8M1C9!



USA.gov is the U.S. government's official web portal to all federal, state and local government web resources and services.